EW2974 Weather Reports


Display with metric or nautical units.
time (UTC)temp
F
wind
direction
speed
MPH
gust
MPH
rain 1hr
in
rain 24hr
in
rain mn
in
humidity
%
barometer
mb
20260905215905 74 77 0.0 0.0 0.00 0.00 0.00 71 1011.1
20260905215404 74 77 0.0 0.0 0.00 0.00 0.00 76 1011.0
20260905214905 74 77 0.0 0.0 0.00 0.00 0.00 78 1011.0
20260905214405 74 82 0.0 0.0 0.00 0.00 0.00 77 1010.9
20260905213905 74 82 0.0 0.0 0.00 0.00 0.00 77 1011.0
20260905212905 75 49 0.0 0.0 0.00 0.00 0.00 76 1011.0
20260905211905 75 49 0.0 0.0 0.00 0.00 0.00 74 1010.8
20260905211404 75 49 0.0 0.0 0.00 0.00 0.00 75 1010.8
20260905210404 75 48 0.0 0.0 0.00 0.00 0.00 78 1010.8
20260905205904 75 48 0.0 0.0 0.00 0.00 0.00 78 1010.8
20260905205404 75 48 1.0 3.0 0.00 0.00 0.00 78 1010.8
20260905204905 75 64 0.0 0.0 0.00 0.00 0.00 79 1010.8
20260905204404 75 64 0.0 0.0 0.00 0.00 0.00 79 1010.9
20260905203904 75 64 0.0 0.0 0.00 0.00 0.00 78 1010.9
20260905203404 75 64 0.0 0.0 0.00 0.00 0.00 81 1010.9
20260905202904 75 64 0.0 0.0 0.00 0.00 0.00 80 1010.9
20260905202405 75 64 0.0 0.0 0.00 0.00 0.00 79 1011.0
20260905201904 75 64 0.0 0.0 0.00 0.00 0.00 79 1011.0
20260905201405 75 64 0.0 0.0 0.00 0.00 0.00 78 1011.0
20260905200404 75 64 0.0 0.0 0.00 0.00 0.00 78 1011.0
20260905195904 76 64 0.0 0.0 0.00 0.00 0.00 79 1011.0
20260905194905 76 64 0.0 0.0 0.00 0.00 0.00 77 1011.1
20260905193904 76 64 0.0 0.0 0.00 0.00 0.00 74 1011.1
20260905193405 76 64 0.0 0.0 0.00 0.00 0.00 78 1011.1
20260905192906 76 64 0.0 0.0 0.00 0.00 0.00 75 1011.1
20260905192404 76 64 0.0 0.0 0.00 0.00 0.00 77 1011.2
20260905191904 76 64 0.0 0.0 0.00 0.00 0.00 80 1011.1
20260905190904 76 64 0.0 0.0 0.00 0.00 0.00 78 1011.4
20260905190404 77 64 0.0 0.0 0.00 0.00 0.00 76 1011.4
20260905185904 77 64 0.0 0.0 0.00 0.00 0.00 76 1011.4
20260905185404 78 64 0.0 1.0 0.00 0.00 0.00 76 1011.4
20260905183904 76 64 0.0 0.0 0.00 0.00 0.00 79 1011.5
20260905183404 76 64 0.0 0.0 0.00 0.00 0.00 79 1011.4
20260905182904 77 64 0.0 0.0 0.00 0.00 0.00 75 1011.5
20260905182404 77 64 0.0 0.0 0.00 0.00 0.00 78 1011.5
20260905181905 77 64 0.0 0.0 0.00 0.00 0.00 77 1011.5
20260905180404 75 64 0.0 0.0 0.00 0.00 0.00 82 1011.7
20260905175904 75 64 0.0 0.0 0.00 0.00 0.00 80 1011.9
20260905175404 75 64 0.0 0.0 0.00 0.00 0.00 79 1011.9
20260905174404 76 64 0.0 0.0 0.00 0.00 0.00 79 1011.8
20260905173405 76 65 0.0 1.0 0.00 0.00 0.00 82 1011.8
20260905172404 75 57 0.0 1.0 0.00 0.00 0.00 81 1011.9
20260905171904 76 57 0.0 8.0 0.00 0.00 0.00 80 1011.9
20260905171404 76 189 0.0 0.0 0.00 0.00 0.00 82 1012.0
20260905165905 74 189 0.0 0.0 0.00 0.00 0.00 85 1012.2
20260905165404 73 188 0.0 0.0 0.00 0.00 0.00 87 1012.3
20260905164904 73 188 0.0 0.0 0.00 0.00 0.00 87 1012.4
20260905164404 73 188 0.0 0.0 0.00 0.00 0.00 87 1012.4
20260905163904 73 188 0.0 1.0 0.00 0.00 0.00 86 1012.4
20260905163404 73 188 0.0 1.0 0.00 0.00 0.00 86 1012.4
20260905162904 74 188 0.0 0.0 0.00 0.00 0.00 88 1012.4
20260905162404 74 188 0.0 0.0 0.00 0.00 0.00 87 1012.4
20260905161904 73 188 0.0 0.0 0.00 0.00 0.00 86 1012.4
20260905161404 73 188 0.0 0.0 0.00 0.00 0.00 86 1012.4
20260905160904 73 188 0.0 0.0 0.00 0.00 0.00 89 1012.5
20260905160404 73 188 0.0 0.0 0.00 0.00 0.00 88 1012.5
20260905155904 72 188 0.0 0.0 0.00 0.00 0.00 88 1012.4
20260905155404 72 188 0.0 0.0 0.00 0.00 0.00 89 1012.2
20260905154904 72 188 0.0 0.0 0.00 0.00 0.00 90 1012.2
20260905154404 73 186 0.0 0.0 0.00 0.01 0.00 90 1012.3
20260905153904 72 186 0.0 0.0 0.00 0.01 0.00 89 1012.3
20260905153404 72 186 0.0 0.0 0.00 0.01 0.00 88 1012.3
20260905152904 72 186 0.0 0.0 0.00 0.01 0.00 88 1012.3
20260905152404 73 186 0.0 0.0 0.00 0.01 0.00 90 1012.3
20260905151904 73 186 0.0 0.0 0.00 0.02 0.00 92 1012.1
20260905151407 72 186 0.0 0.0 0.00 0.03 0.00 90 1012.2
20260905150903 73 186 0.0 0.0 0.00 0.03 0.00 90 1012.2
20260905150404 73 186 0.0 0.0 0.00 0.04 0.00 89 1012.1
20260905145904 73 186 0.0 0.0 0.00 0.05 0.00 90 1012.0
20260905145404 73 186 0.0 0.0 0.00 0.05 0.00 90 1011.9
20260905144904 72 186 0.0 0.0 0.00 0.06 0.00 90 1011.9
20260905144404 72 186 0.0 0.0 0.00 0.07 0.00 91 1011.8
20260905143904 72 186 0.0 0.0 0.00 0.09 0.00 91 1011.8
20260905143404 72 186 0.0 0.0 0.00 0.09 0.00 92 1011.8
20260905142904 72 186 0.0 0.0 0.00 0.09 0.00 93 1011.7
20260905142404 71 186 0.0 0.0 0.00 0.11 0.00 93 1011.7
20260905141904 71 186 0.0 0.0 0.00 0.23 0.00 94 1011.7
20260905141404 70 186 0.0 0.0 0.00 0.29 0.00 94 1011.7
20260905140905 70 186 0.0 0.0 0.00 0.29 0.00 94 1011.7
20260905140404 70 186 0.0 0.0 0.00 0.29 0.00 95 1011.7
20260905135904 70 186 0.0 0.0 0.00 0.29 0.00 95 1011.6
20260905135404 70 186 0.0 0.0 0.00 0.29 0.00 95 1011.6
20260905134405 70 186 0.0 0.0 0.00 0.29 0.00 96 1011.6
20260905133905 70 186 0.0 0.0 0.00 0.29 0.00 96 1011.6
20260905133404 70 186 0.0 0.0 0.00 0.29 0.00 96 1011.6
20260905132404 69 186 0.0 0.0 0.00 0.29 0.00 96 1011.9
20260905131404 69 186 0.0 0.0 0.00 0.29 0.00 96 1012.1
20260905130404 69 186 0.0 0.0 0.00 0.29 0.00 96 1012.2
20260905125904 69 186 0.0 0.0 0.00 0.29 0.00 96 1012.3
20260905124904 69 186 0.0 0.0 0.00 0.29 0.00 96 1012.2
20260905124404 69 186 0.0 0.0 0.00 0.29 0.00 96 1012.2
20260905123904 69 186 0.0 0.0 0.00 0.29 0.00 96 1012.2
20260905123403 69 186 0.0 0.0 0.00 0.29 0.00 96 1012.3
20260905122904 69 186 0.0 0.0 0.00 0.29 0.00 96 1012.3
20260905122404 69 186 0.0 0.0 0.00 0.29 0.00 96 1012.3
20260905121904 69 186 0.0 0.0 0.00 0.29 0.00 96 1012.1
20260905120904 68 186 0.0 0.0 0.00 0.29 0.00 96 1012.1
20260905120404 68 186 0.0 0.0 0.00 0.29 0.00 96 1012.0
20260905115904 68 186 0.0 0.0 0.00 0.29 0.00 96 1012.0
20260905115404 68 186 0.0 0.0 0.00 0.29 0.00 96 1011.9
20260905114905 68 186 0.0 0.0 0.00 0.29 0.00 96 1011.7
20260905114404 68 186 0.0 0.0 0.00 0.29 0.00 96 1011.5
20260905113403 68 186 0.0 0.0 0.00 0.29 0.00 96 1011.7
20260905112904 68 186 0.0 0.0 0.00 0.29 0.00 96 1011.8
20260905112404 68 186 0.0 0.0 0.00 0.29 0.00 96 1011.7
20260905111904 68 186 0.0 0.0 0.00 0.29 0.00 96 1011.8
20260905111404 68 186 0.0 0.0 0.00 0.29 0.00 96 1011.7
20260905110904 68 186 0.0 0.0 0.00 0.29 0.00 96 1011.7
20260905110404 68 186 0.0 0.0 0.00 0.29 0.00 96 1011.5
20260905105904 68 186 0.0 0.0 0.00 0.29 0.00 96 1011.8
20260905105404 68 186 0.0 0.0 0.00 0.29 0.00 96 1011.7
20260905104904 68 186 0.0 0.0 0.00 0.29 0.00 96 1011.7
20260905104404 68 186 0.0 0.0 0.00 0.29 0.00 96 1011.8
20260905103903 68 186 0.0 0.0 0.00 0.29 0.00 96 1012.1
20260905103404 68 186 0.0 0.0 0.00 0.29 0.00 96 1012.1
20260905102905 68 186 0.0 0.0 0.00 0.29 0.00 96 1012.0
20260905102404 68 186 0.0 0.0 0.00 0.29 0.00 96 1011.9
20260905101904 68 186 0.0 0.0 0.00 0.29 0.00 96 1011.8
20260905101404 68 186 0.0 0.0 0.00 0.29 0.00 96 1011.6
20260905100904 68 186 0.0 0.0 0.00 0.29 0.00 96 1011.5
20260905100404 68 186 0.0 0.0 0.00 0.29 0.00 96 1011.5
20260905095904 68 186 0.0 0.0 0.00 0.29 0.00 96 1011.6
20260905094904 68 186 0.0 0.0 0.00 0.29 0.00 96 1011.5
20260905094404 68 186 0.0 0.0 0.00 0.29 0.00 96 1011.3
20260905093904 68 186 0.0 0.0 0.00 0.29 0.00 96 1011.3
20260905093404 68 186 0.0 0.0 0.00 0.29 0.00 96 1011.2
20260905092904 68 186 0.0 0.0 0.00 0.29 0.00 96 1011.2
20260905091904 68 186 0.0 0.0 0.00 0.29 0.00 96 1011.1
20260905090904 67 186 0.0 0.0 0.00 0.29 0.00 96 1011.2
20260905090404 67 186 0.0 0.0 0.00 0.29 0.00 96 1011.1
20260905085903 67 186 0.0 0.0 0.00 0.29 0.00 96 1011.3
20260905085404 67 186 0.0 0.0 0.00 0.29 0.00 96 1011.0
20260905084404 67 186 0.0 0.0 0.00 0.29 0.00 96 1010.5
20260905083903 67 186 0.0 0.0 0.00 0.29 0.00 96 1010.5
20260905083404 67 186 0.0 0.0 0.00 0.29 0.00 96 1010.4
20260905082904 67 186 0.0 0.0 0.00 0.29 0.00 96 1010.4
20260905082404 67 186 0.0 0.0 0.00 0.29 0.00 96 1010.8
20260905081904 67 186 0.0 0.0 0.00 0.29 0.00 96 1010.9
20260905081404 67 186 0.0 0.0 0.00 0.29 0.00 96 1011.0
20260905075904 67 186 0.0 0.0 0.00 0.29 0.00 96 1011.1
20260905075404 67 186 0.0 0.0 0.00 0.29 0.00 96 1011.0
20260905074904 67 186 0.0 0.0 0.00 0.29 0.00 96 1010.9
20260905074404 67 186 0.0 0.0 0.00 0.29 0.00 96 1011.1
20260905073904 67 186 0.0 0.0 0.00 0.29 0.00 96 1011.0
20260905073404 67 186 0.0 0.0 0.00 0.29 0.00 95 1010.9
20260905072904 67 186 0.0 0.0 0.00 0.29 0.00 95 1010.9
20260905072404 67 186 0.0 0.0 0.00 0.29 0.00 96 1010.9
20260905071903 67 186 0.0 0.0 0.00 0.29 0.00 95 1010.8
20260905071403 67 186 0.0 0.0 0.00 0.29 0.00 95 1010.9
20260905070904 67 186 0.0 0.0 0.00 0.29 0.00 96 1010.9
20260905070404 67 186 0.0 0.0 0.00 0.29 0.00 96 1011.1
20260905065903 67 186 0.0 0.0 0.00 0.29 0.00 96 1011.1
20260905064904 67 186 0.0 0.0 0.00 0.29 0.00 96 1011.4
20260905063903 67 186 0.0 0.0 0.00 0.29 0.00 96 1011.6
20260905063403 67 186 0.0 0.0 0.00 0.29 0.00 96 1011.7
20260905062904 67 186 0.0 0.0 0.00 0.29 0.00 95 1011.7
20260905061904 67 186 0.0 0.0 0.00 0.29 0.00 95 1011.7
20260905061404 67 186 0.0 0.0 0.00 0.29 0.00 95 1012.0
20260905060905 67 186 0.0 0.0 0.00 0.29 0.00 95 1012.0
20260905055405 67 186 0.0 0.0 0.00 0.29 0.00 95 1012.2
20260905054905 67 186 0.0 0.0 0.00 0.29 0.00 95 1012.2
20260905054405 67 186 0.0 0.0 0.00 0.29 0.00 95 1012.1
20260905053905 67 186 0.0 0.0 0.00 0.29 0.00 95 1012.0
20260905053405 67 186 0.0 0.0 0.00 0.29 0.00 95 1012.1
20260905052905 67 186 0.0 0.0 0.00 0.30 0.00 95 1012.1
20260905052404 67 186 0.0 0.0 0.00 0.30 0.00 95 1012.2
20260905051905 67 186 0.0 0.0 0.00 0.30 0.00 95 1012.2
20260905051405 67 186 0.0 0.0 0.00 0.30 0.00 95 1012.2
20260905050905 67 186 0.0 0.0 0.00 0.30 0.00 95 1012.3
20260905050405 67 186 0.0 0.0 0.00 0.30 0.00 95 1012.2
20260905045905 68 186 0.0 0.0 0.00 0.30 0.00 95 1012.1
20260905045405 68 186 0.0 0.0 0.00 0.30 0.00 95 1012.1
20260905044405 68 186 0.0 0.0 0.00 0.30 0.00 95 1012.3
20260905043404 68 186 0.0 0.0 0.00 0.30 0.00 95 1012.2
20260905042905 68 186 0.0 0.0 0.00 0.30 0.00 95 1012.2
20260905042405 69 186 0.0 0.0 0.00 0.30 0.00 95 1012.1
20260905041905 69 186 0.0 0.0 0.00 0.30 0.00 95 1012.0
20260905040904 69 186 0.0 0.0 0.00 0.30 0.00 95 1012.1
20260905040405 69 186 0.0 0.0 0.00 0.30 0.00 95 1012.2
20260905035905 69 186 0.0 0.0 0.00 0.30 0.30 95 1012.2
20260905035405 69 186 0.0 0.0 0.00 0.30 0.30 95 1012.1
20260905033905 69 186 0.0 0.0 0.00 0.30 0.30 95 1012.1
20260905032905 69 186 0.0 0.0 0.00 0.35 0.30 95 1012.1
20260905032405 69 186 0.0 0.0 0.00 0.35 0.30 95 1012.1
20260905031905 69 186 0.0 0.0 0.00 0.43 0.30 95 1012.0
20260905031405 70 186 0.0 0.0 0.00 0.45 0.30 95 1012.1
20260905030905 70 186 0.0 0.0 0.00 0.45 0.30 95 1012.1
20260905030405 70 186 0.0 0.0 0.00 0.45 0.30 95 1012.1
20260905025905 70 186 0.0 0.0 0.00 0.45 0.30 95 1012.1
20260905025405 70 186 0.0 0.0 0.00 0.45 0.30 95 1012.2
20260905024405 70 186 0.0 0.0 0.00 0.45 0.30 95 1012.3
20260905023905 70 186 0.0 0.0 0.00 0.45 0.30 95 1012.3
20260905022905 70 186 0.0 0.0 0.00 0.45 0.30 95 1012.4
20260905022405 70 186 0.0 0.0 0.00 0.45 0.30 95 1012.4
20260905021905 70 186 0.0 0.0 0.00 0.45 0.30 95 1012.3
20260905020904 70 186 0.0 0.0 0.00 0.45 0.30 95 1012.3
20260905020405 71 186 0.0 0.0 0.00 0.45 0.30 95 1012.3
20260905015905 71 186 0.0 0.0 0.00 0.45 0.30 94 1012.3
20260905015405 71 186 0.0 0.0 0.00 0.45 0.30 94 1012.4
20260905014904 71 186 0.0 0.0 0.00 0.45 0.30 94 1012.3
20260905014404 71 186 0.0 0.0 0.00 0.45 0.30 95 1012.3
20260905013405 71 186 0.0 0.0 0.00 0.45 0.30 94 1012.3
20260905012905 71 186 0.0 0.0 0.00 0.45 0.30 94 1012.2
20260905011904 71 186 0.0 0.0 0.00 0.45 0.30 94 1012.4
20260905011404 71 186 0.0 0.0 0.00 0.45 0.30 94 1012.4
20260905010904 71 186 0.0 0.0 0.00 0.45 0.30 94 1012.3
20260905010404 71 186 0.0 0.0 0.00 0.45 0.30 94 1012.3
20260905005905 72 186 0.0 0.0 0.00 0.45 0.30 94 1012.3
20260905005405 72 186 0.0 0.0 0.00 0.45 0.30 94 1012.1
20260905004904 72 186 0.0 0.0 0.00 0.45 0.30 94 1012.1
20260905004404 72 186 0.0 0.0 0.00 0.45 0.30 94 1012.1
20260905003905 72 186 0.0 0.0 0.00 0.46 0.30 94 1012.0
20260905003405 72 186 0.0 0.0 0.00 0.46 0.30 94 1012.0
20260905002905 72 186 0.0 0.0 0.00 0.47 0.30 94 1011.9
20260905002404 72 186 0.0 0.0 0.00 0.47 0.30 94 1011.8
20260905001905 73 186 0.0 0.0 0.00 0.47 0.30 93 1011.9
20260905001405 73 186 0.0 0.0 0.00 0.47 0.30 93 1011.8
20260905000905 73 186 0.0 0.0 0.00 0.49 0.30 93 1011.8
20260904235905 73 186 0.0 0.0 0.00 0.52 0.30 93 1012.0
20260904235405 73 186 0.0 0.0 0.00 0.53 0.30 93 1012.1
20260904234905 73 186 0.0 0.0 0.00 0.55 0.30 93 1012.1
20260904234405 74 186 0.0 0.0 0.00 0.55 0.30 93 1012.4
20260904232904 74 186 0.0 0.0 0.00 0.59 0.30 91 1012.5
20260904232404 74 186 0.0 0.0 0.00 0.60 0.30 91 1012.6
20260904231905 74 186 0.0 0.0 0.00 0.60 0.30 91 1012.6
20260904231404 75 186 0.0 0.0 0.00 0.61 0.30 91 1012.4
20260904230905 75 186 0.0 0.0 0.00 0.63 0.30 91 1012.4
20260904230405 75 186 0.0 0.0 0.00 0.67 0.30 91 1012.4
20260904225905 75 186 0.0 0.0 0.00 0.69 0.30 91 1012.3
20260904225404 75 186 0.0 0.0 0.00 0.71 0.30 91 1012.2
20260904224905 75 186 0.0 0.0 0.00 0.71 0.30 90 1012.2
20260904224405 75 186 0.0 0.0 0.00 0.71 0.30 89 1012.1
20260904223905 75 186 0.0 0.0 0.00 0.72 0.30 88 1012.0
20260904223405 75 186 0.0 0.0 0.00 0.74 0.30 88 1012.0
20260904222904 75 186 0.0 0.0 0.00 0.74 0.30 88 1012.0
20260904221904 75 186 0.0 0.0 0.00 0.74 0.30 88 1011.7
20260904221404 75 186 0.0 0.0 0.00 0.74 0.30 87 1011.6
20260904220404 75 186 0.0 0.0 0.00 0.74 0.30 86 1011.4